Theta_e
327 325 325 340 340 339 340 341 349 344 349 347 348 347 347 341 342 343 344 346 343 342 341 342 343 343 343 343 341 345 344 343 340 342 343 340 344 343 344 345 348 345 338 342
324 324 326 336 340 341 340 340 345 346 348 346 347 349 340 343 342 341 340 346 345 345 345 345 344 344 344 344 341 342 342 343 341 342 344 342 341 343 341 344 342 342 339 337
323 326 328 331 339 340 339 338 345 348 351 343 349 345 338 341 345 344 344 344 343 344 343 344 344 345 345 345 344 342 341 344 342 346 344 346 343 344 342 343 343 343 336 335
324 326 328 327 327 327 327 336 343 341 341 348 347 353 344 346 346 345 345 344 345 345 344 341 343 345 347 345 344 345 343 344 343 345 342 345 344 344 344 343 344 343 334 336
323 325 325 325 326 325 325 335 335 337 343 342 347 339 347 341 341 344 344 345 344 342 343 340 340 341 346 347 346 346 345 345 345 346 345 344 344 343 347 344 347 345 338 343
322 325 324 323 325 325 328 332 332 333 335 337 340 343 348 344 347 347 345 345 346 344 343 341 340 342 345 347 348 346 346 343 343 347 348 346 343 344 346 346 346 346 345 343
323 322 326 326 322 325 328 325 340 342 344 343 337 340 344 345 342 344 340 342 344 347 346 345 341 344 345 344 347 348 347 341 339 345 348 348 343 339 344 347 348 346 345 348
322 321 325 325 322 326 325 323 339 346 344 342 336 345 343 344 339 336 337 339 344 346 346 345 342 342 342 337 347 350 348 343 340 341 340 348 342 344 344 345 345 343 347 349
325 328 326 325 326 328 333 332 331 335 337 340 338 339 341 340 342 341 341 342 346 347 346 346 341 342 339 339 339 345 350 347 337 338 337 340 341 343 344 346 346 348 347 348
324 330 326 326 328 328 330 328 330 330 336 343 345 342 339 340 344 346 346 341 342 344 345 345 345 343 344 344 342 346 349 349 343 339 341 341 338 341 346 348 345 343 345 345
323 326 333 328 328 328 327 324 326 325 333 339 345 339 337 338 342 337 338 337 338 344 344 347 346 345 346 343 344 343 350 350 346 343 342 343 342 338 340 343 347 346 345 342
324 323 332 331 330 326 325 325 325 328 332 336 339 339 334 335 338 333 338 342 345 346 346 346 347 347 346 346 345 345 349 349 347 347 349 343 345 343 340 344 345 346 345 343
326 323 323 327 333 329 327 326 328 326 329 337 340 340 337 335 342 341 341 345 346 347 346 346 346 348 347 346 347 347 349 346 343 337 346 347 349 347 346 341 344 346 347 345
328 325 325 324 337 335 336 335 331 327 329 336 338 339 337 336 340 344 345 346 346 346 345 347 347 347 346 345 349 348 348 347 346 341 344 347 351 347 348 347 347 346 342 346
326 328 330 333 334 334 335 335 335 328 329 333 334 338 341 337 336 344 343 342 346 347 347 345 347 348 349 350 351 350 349 348 347 346 342 344 348 349 348 348 348 351 349 346
328 328 332 333 334 333 335 334 334 329 328 328 335 338 336 336 338 340 343 343 346 345 346 347 349 349 348 348 350 353 351 350 349 346 341 343 349 348 349 347 350 349 350 350
330 329 332 331 334 335 335 334 334 331 329 329 333 335 336 339 337 337 343 342 342 345 346 347 347 348 349 343 339 342 347 350 346 346 346 346 343 339 343 345 349 348 348 349
329 331 332 333 336 339 335 332 333 333 330 330 336 339 338 338 340 341 339 341 342 343 344 344 346 348 348 347 347 345 339 341 341 340 340 341 340 337 336 344 347 349 348 347
327 330 333 333 334 334 335 334 335 330 331 329 328 339 341 339 339 340 339 340 342 341 342 343 345 345 346 348 349 347 346 344 342 344 347 344 342 341 340 343 346 348 349 349
329 330 331 333 336 336 335 332 332 331 332 331 332 332 338 338 337 337 340 341 341 341 339 339 337 337 337 335 337 340 342 341 342 344 345 348 347 344 342 340 343 350 350 351
333 331 331 331 334 333 334 332 331 332 334 333 332 337 338 338 338 337 338 337 337 336 335 335 335 334 334 336 338 340 340 340 340 340 334 337 343 344 343 345 349 347 348 350
334 331 332 331 333 334 333 331 331 333 332 332 337 338 337 336 336 336 335 335 335 334 332 332 334 335 337 337 338 339 339 339 334 340 339 335 341 342 344 344 347 347 346 345
331 330 330 331 332 331 331 330 333 332 331 331 338 338 338 337 337 336 335 331 330 330 330 331 332 333 335 337 336 337 340 338 337 336 335 340 339 345 342 343 346 346 344 344
333 333 331 329 332 330 330 330 333 331 331 331 336 336 336 336 335 332 331 330 331 332 332 332 331 331 331 333 337 337 338 339 339 336 333 341 341 343 342 341 344 343 342 344
333 332 333 331 331 332 330 330 331 330 331 330 331 336 335 334 331 330 331 331 332 332 332 331 330 330 332 333 335 336 337 338 336 333 335 341 342 342 341 343 343 342 342 340
331 334 337 336 334 334 333 331 332 330 331 330 330 333 333 332 331 330 331 331 332 331 327 327 332 334 335 336 336 336 336 335 330 332 334 340 340 342 337 337 340 340 340 337
Wind_Speed
18 4 7 10 11 7 13 5 8 4 11 4 4 4 11 14 13 19 16 4 10 30 28 24 24 23 28 22 25 22 23 20 16 18 22 13 15 14 12 10 8 8 13 9
7 9 14 12 17 20 13 8 7 9 17 5 9 5 4 4 17 22 21 12 4 26 27 14 26 26 26 24 26 23 21 18 13 20 15 15 15 11 13 12 12 11 13 14
10 13 16 11 16 12 16 9 8 8 17 8 13 3 3 7 16 20 22 23 13 22 22 17 22 21 25 27 25 25 24 22 18 18 16 17 19 16 16 15 12 10 16 13
10 17 13 4 5 7 5 4 13 10 10 6 7 3 11 11 9 15 27 26 26 25 28 21 25 25 22 28 25 25 23 23 21 21 22 21 19 22 17 16 12 12 14 14
11 10 6 8 6 9 9 7 5 3 9 3 10 1 1 6 9 13 25 35 34 33 29 28 30 31 14 27 29 25 22 23 21 25 19 20 16 24 17 18 13 9 10 14
10 21 7 9 9 10 9 4 2 5 2 0 8 6 6 7 8 5 12 26 34 35 32 30 26 34 17 25 29 24 24 23 23 26 24 22 23 21 21 19 21 16 10 14
10 11 6 6 7 7 2 4 4 6 6 4 14 3 6 10 9 9 24 28 18 35 29 34 29 30 27 21 27 29 23 23 26 29 26 25 24 19 23 17 19 14 11 9
7 8 10 8 9 8 7 8 6 6 5 5 7 7 5 19 24 23 18 22 13 27 32 40 33 33 32 31 29 29 30 22 27 26 27 23 21 18 18 19 15 12 13 11
4 9 9 9 8 4 5 3 9 5 1 2 4 9 7 13 16 17 17 13 12 19 38 45 46 42 30 30 37 38 34 26 26 25 24 26 24 21 19 18 18 14 16 14
11 3 5 9 9 10 7 2 3 3 2 3 5 12 3 8 9 16 14 14 10 15 25 37 42 38 30 35 37 36 36 31 25 25 24 23 25 27 23 22 18 18 19 23
10 4 3 5 6 8 1 4 4 2 5 5 6 6 6 6 19 15 13 17 13 9 18 33 33 36 33 35 34 25 39 36 28 24 22 21 21 24 25 24 22 19 19 19
10 4 4 9 9 10 9 8 8 5 4 3 2 5 7 5 20 25 24 26 21 20 13 16 19 27 36 40 38 32 33 29 22 23 22 19 16 21 22 27 26 22 20 21
6 3 1 6 5 3 7 9 7 1 3 4 6 5 2 8 23 26 28 19 11 15 13 13 13 22 28 33 35 34 27 32 22 32 21 23 22 19 18 23 30 26 24 21
5 5 7 6 4 3 6 10 12 2 4 3 5 1 10 3 10 21 24 21 16 14 12 10 11 9 8 14 21 26 28 31 23 17 24 26 30 23 24 19 22 21 24 22
5 3 1 7 9 11 2 13 18 8 7 5 8 9 9 10 10 21 30 22 20 17 15 14 14 11 10 7 11 12 14 18 19 22 28 31 29 29 24 22 18 21 22 22
8 3 1 2 11 9 7 22 16 2 3 4 10 8 14 20 15 25 29 28 25 20 16 12 12 7 4 8 7 5 9 9 17 18 30 31 25 23 26 25 24 23 25 26
4 2 2 5 6 6 4 7 6 15 3 3 9 8 9 8 10 17 22 25 22 21 22 17 10 5 2 2 3 9 11 4 3 10 14 23 20 36 26 25 23 25 27 28
3 5 2 4 4 3 7 10 9 10 4 6 12 10 13 15 19 19 16 14 14 18 16 13 11 7 2 3 1 1 5 5 6 5 4 6 11 18 31 31 23 29 28 27
4 3 3 1 3 5 7 12 13 9 3 4 7 12 20 23 21 16 13 10 18 17 14 13 13 9 7 8 3 1 4 4 5 6 6 9 12 17 17 21 25 27 26 27
5 7 5 2 3 5 7 3 3 6 2 6 5 8 15 24 5 4 21 19 16 11 9 6 3 5 7 7 5 5 7 8 9 13 13 12 12 15 20 21 22 21 22 23
4 2 6 9 3 7 7 11 11 6 5 4 13 27 21 6 15 25 23 21 18 14 9 6 7 7 7 6 6 7 8 9 10 11 14 14 14 15 17 20 21 21 20 20
6 6 4 3 4 6 12 10 7 6 9 16 23 29 33 34 28 24 19 15 11 10 6 4 2 7 11 10 6 7 9 10 17 14 18 16 15 18 18 18 19 19 21 24
4 5 5 8 8 11 4 27 17 18 16 11 28 30 35 31 25 23 23 19 11 6 4 4 6 6 4 9 13 14 13 14 14 16 16 12 14 17 17 14 15 19 20 21
9 8 4 4 4 7 19 30 26 20 19 15 26 34 33 30 28 27 21 19 15 9 5 4 7 11 12 12 9 13 12 13 15 19 14 12 14 14 13 16 18 18 18 18
4 14 7 4 7 2 12 20 16 11 20 20 18 31 28 24 27 29 24 18 13 9 5 8 11 11 10 13 13 13 14 16 19 18 13 16 12 14 15 17 18 17 17 16
1 2 3 3 14 6 7 11 16 19 24 23 22 22 22 25 28 24 21 17 12 6 5 8 6 9 10 8 9 15 19 22 22 14 12 11 10 12 16 18 17 17 17 18
Wind_Direction
245 236 237 177 152 230 233 151 166 257 197 125 148 49 354 182 187 249 224 240 216 162 166 165 178 177 181 181 164 178 180 185 175 177 181 188 178 175 185 194 186 188 185 180
274 228 243 189 172 198 192 180 190 233 165 112 115 110 277 240 198 218 230 228 177 152 161 154 175 181 183 185 180 188 196 197 180 170 164 167 185 185 194 202 222 235 224 184
227 248 240 196 188 196 217 200 165 199 171 80 121 84 230 282 213 216 233 218 188 166 163 183 165 191 186 185 188 191 202 206 196 180 183 191 187 192 198 221 226 230 221 208
232 255 261 218 318 298 311 137 162 184 164 199 199 206 217 230 207 204 215 180 187 175 171 169 207 194 195 198 197 200 203 208 198 196 193 199 187 191 207 216 226 245 215 198
251 256 288 296 229 249 255 169 255 245 193 203 199 110 89 150 200 210 204 191 192 194 184 195 214 219 210 202 198 205 212 214 201 198 183 204 201 188 200 202 211 209 205 194
253 277 232 223 252 248 249 172 212 297 300 322 221 161 205 203 206 159 208 193 190 198 199 193 201 203 223 200 196 207 213 214 206 195 193 200 209 200 200 204 209 209 215 202
263 257 236 252 247 243 56 358 14 20 7 234 287 327 224 191 194 201 207 206 194 183 199 194 192 192 207 214 199 210 220 211 199 196 202 201 206 205 197 198 190 209 212 204
208 253 212 203 211 200 192 179 150 178 207 250 317 141 229 181 192 207 228 204 197 184 187 189 192 184 216 211 200 205 220 217 204 205 207 208 216 202 198 192 192 199 228 238
255 275 170 187 224 199 224 173 206 156 315 85 0 317 76 165 199 220 218 213 198 195 182 191 190 196 216 207 206 205 210 218 208 212 211 212 214 217 206 190 184 199 211 215
254 294 193 191 191 261 194 239 38 316 235 130 27 275 148 154 148 99 120 121 159 180 184 191 199 204 194 210 209 208 215 216 207 208 212 216 216 217 217 205 208 220 228 228
235 170 177 200 183 205 275 262 261 179 150 145 168 252 192 141 124 125 145 136 137 202 227 202 204 214 202 193 197 215 218 217 215 208 212 215 222 222 218 215 214 221 226 223
213 210 195 211 237 185 213 230 185 132 290 82 94 306 219 126 136 132 147 153 162 186 204 196 184 194 202 196 202 202 205 199 216 222 219 214 224 228 225 219 220 222 226 226
223 222 317 311 351 227 190 252 251 300 85 130 129 251 76 114 137 149 148 158 173 125 130 161 164 158 187 205 206 208 201 185 237 229 222 225 223 226 231 226 225 228 229 238
118 165 161 198 180 181 339 329 325 311 80 195 166 147 355 196 114 135 140 143 138 141 149 156 167 153 156 187 202 208 225 244 255 227 220 221 224 228 230 236 224 228 237 233
117 178 298 128 177 173 110 324 307 244 179 147 214 148 116 250 142 147 149 154 155 154 150 148 164 170 169 154 170 221 242 257 234 233 244 225 227 224 235 236 235 235 229 243
334 213 211 306 114 150 155 241 278 10 357 13 137 150 201 171 171 143 159 159 160 172 163 157 155 167 169 194 197 176 236 240 215 238 217 234 217 218 220 230 231 233 235 233
16 325 156 253 160 82 4 269 322 304 201 235 138 202 170 148 160 174 167 164 171 175 164 162 159 186 218 275 243 235 233 237 114 206 260 222 275 236 246 257 230 242 245 248
294 12 196 221 120 125 229 287 268 286 68 76 128 150 146 133 127 147 132 148 160 142 153 159 163 165 242 242 196 319 265 229 232 252 279 260 214 210 248 238 240 243 246 249
182 92 341 167 237 238 212 223 219 225 167 93 124 130 133 132 128 132 150 145 139 135 129 117 138 150 141 114 172 218 278 302 282 279 268 266 241 247 252 256 247 242 242 248
112 149 126 62 32 269 185 75 231 172 210 125 132 130 138 137 114 212 142 138 139 144 141 151 228 257 275 296 285 236 251 272 269 276 273 262 252 250 245 248 249 252 254 257
126 73 169 243 174 283 278 156 143 119 201 322 181 128 121 108 131 125 132 127 130 135 149 197 233 252 277 272 252 255 282 290 300 291 286 265 260 267 270 259 255 258 260 260
174 148 155 163 172 257 302 173 139 196 110 93 123 134 125 128 133 136 133 132 137 138 140 159 223 289 260 261 256 257 264 277 294 297 306 275 269 272 274 260 259 264 268 266
269 168 198 175 199 212 242 303 154 151 125 110 137 140 139 139 141 149 148 145 145 157 199 250 276 289 295 275 281 280 265 285 289 291 299 276 278 270 272 264 261 271 270 264
345 32 166 95 266 144 195 251 185 148 146 137 152 148 148 155 162 151 147 145 145 149 166 225 270 277 279 289 281 265 271 279 290 301 285 282 276 267 261 260 265 271 266 265
309 314 308 208 242 38 294 297 138 138 155 159 151 161 160 161 153 150 146 146 151 165 206 259 274 278 280 279 288 287 286 290 296 300 276 279 269 256 257 262 270 273 270 267
225 331 9 308 340 126 268 272 247 162 157 167 168 155 155 149 153 150 146 153 163 181 277 299 302 264 259 255 288 292 290 293 291 281 292 267 248 260 276 275 272 269 271 271